Terug naar catalogus

REX

ActiefMilitairPO
NORAD 21527·PAYLOAD·🇺🇸 United States

Gelanceerd Jun 29, 1991 vanaf Vandenberg Space Force Base

Loading…

Volgende Passages (komende 24 uur)

TLE

VersSource: Space-Track

Epoch: Sep 14, 2026, 00:06 UTC

1 21527U 91045A   26257.00432633  .00000093  00000-0  34162-4 0  9991
2 21527  89.5280 255.4109 0070415  56.0997 304.6866 14.23597475827737

Volg REX in realtime met AllMySat

Download on the App Store